Regional Weather Roundup
Issued by NWS

Home | Current Version | Previous Version | Text Only | Print | Product List | Glossary Off
Versions: 1 2 3 4 5 6 7 8 9 10 11 12 13 14 15 16 17 18 19 20 21 22 23 24 25 26 27 28 29 30 31 32 33 34 35 36 37 38 39 40 41 42 43 44 45 46 47 48 49 50

000
ASUS43 KLOT 200410
RWRIL

ILLINOIS REGIONAL WEATHER ROUNDUP
NATIONAL WEATHER SERVICE CHICAGO/ROMEOVILLE IL
1000 PM CST FRI DEC 19 2014

NOTE: "FAIR" INDICATES FEW OR NO CLOUDS BELOW 12,000 FEET WITH NO
SIGNIFICANT WEATHER AND/OR OBSTRUCTIONS TO VISIBILITY.

* THESE STATIONS ARE NOT UNDER NWS QUALITY CONTROL. THEY ALSO MAY NOT
  REPORT WEATHER SUCH AS PRECIPITATION OR FOG.

ILZ001-002-007-009-015-016-024-200500-
NORTHWEST ILLINOIS

CITY           SKY/WX    TMP DP  RH WIND       PRES   REMARKS
MOLINE         CLOUDY    29  23  78 E3        30.26S
STERLING*      CLOUDY    28  23  80 E5        30.26S WCI  23
SAVANNA*       CLOUDY    28  24  86 CALM      30.26S
$$

ILZ003-004-008-010-011-017-018-200500-
NORTH CENTRAL ILLINOIS

CITY           SKY/WX    TMP DP  RH WIND       PRES   REMARKS
ROCKFORD       CLOUDY    28  22  78 NE6       30.28F WCI  22
FREEPORT*      CLOUDY    24  22  92 E5        30.27F WCI  18
ROCHELLE*      MOCLDY    23  22  94 CALM      30.26F FOG
DE KALB*       CLOUDY    22  21  93 E3        30.26S FOG
PERU*          CLOUDY    30  25  83 E3        30.27S
$$

ILZ005-006-012>014-019>023-200500-
NORTHEAST ILLINOIS

CITY           SKY/WX    TMP DP  RH WIND       PRES   REMARKS
CHICAGO-OHARE  CLOUDY    29  21  72 N3        30.26S
CHICAGO-MIDWAY CLOUDY    33  25  72 S3        30.27S
AURORA         MOCLDY    25  21  85 N3        30.27S
LANSING*       CLOUDY    31  26  81 CALM      30.27S
JOLIET*        CLOUDY    30  25  79 CALM      30.27S
WAUKEGAN       CLOUDY    27  20  75 CALM      30.26S
DUPAGE AIRPORT CLOUDY    27  22  81 N3        30.26S
KANKAKEE*      CLOUDY    30  27  88 CALM      30.28S
WHEELING       CLOUDY    29  21  72 N3        30.28F
MORRIS*        MOCLDY    26  24  94 CALM      30.26S
ROMEOVILLE*    CLOUDY    30  26  83 S3        30.27S
NORTHERLY ISL    N/A     32  24  73 S5          N/A  WCI  27
$$

LMZ740>746-200500-
SOUTHERN LAKE MICHIGAN

STATION/POSITION SKY/WX   TEMP    WIND        PRES    VSBY  WAVE
                          AIR SEA DIR/SP/G                  HT/PER
                          (F)     (DEG/KT/KT) (MB)    (MI)  (FT/S)
WAUKEGAN HARBOR            28        CALM       N/A
HARRISON CRIB              32     170/  5/  7   N/A
BURNHAM HARBOR             33     180/  4/  6   N/A
CALUMET HARBOR             32     210/  4/  6 1023.7F
$$

ILZ025>027-034>036-040-047-049-050-058-095>099-200500-
WEST-CENTRAL ILLINOIS

CITY           SKY/WX    TMP DP  RH WIND       PRES   REMARKS
QUINCY         CLOUDY    31  26  82 SE5       30.25S WCI  26
GALESBURG*     CLOUDY    29  25  83 SE3       30.26R
MACOMB*        CLOUDY    30  26  84 S3        30.28S
JACKSONVILLE*  CLOUDY    33  29  84 E5        30.26S WCI  29
PITTSFIELD*    CLOUDY    33  29  86 E3        30.27R
$$

ILZ028>032-037-038-041>044-048-051>054-059>061-200500-
CENTRAL ILLINOIS

CITY           SKY/WX    TMP DP  RH WIND       PRES   REMARKS
PONTIAC        MOCLDY    25  23  94 CALM      30.28S
BLOOMINGTON    MOCLDY    25  23  91 CALM      30.26S
DECATUR        CLOUDY    29  26  89 CALM      30.27S
PEORIA         MOCLDY    29  22  75 CALM      30.28R
LACON*         MOCLDY    26  23  86 CALM      30.26S
LINCOLN*       CLOUDY    31  27  88 CALM      30.28S
SPRINGFIELD    MOCLDY    31  24  75 E3        30.27S
TAYLORVILLE    CLOUDY    30  27  86 CALM      30.27S
$$

ILZ033-039-045-046-055>057-062-063-200500-
EAST-CENTRAL ILLINOIS

CITY           SKY/WX    TMP DP  RH WIND       PRES   REMARKS
CHAMPAIGN      CLOUDY    27  24  89 SE3       30.26S FOG
DANVILLE*      CLOUDY    29  27  91 CALM      30.24F
RANTOUL*       CLOUDY    29  27  92 CALM      30.27S FOG
MATTOON        CLOUDY    29  23  78 CALM      30.26R
PARIS*         CLOUDY    31  28  91 CALM      30.28R
$$

ILZ079-100>102-200500-
SOUTHWEST ILLINOIS

CITY           SKY/WX    TMP DP  RH WIND       PRES   REMARKS
ALTON          CLOUDY    34  26  74 E3        30.28R
BELLEVILLE     CLOUDY    34  31  86 NE3       30.27R
CAHOKIA*       CLOUDY    36  28  73 CALM      30.27R
SPARTA*        CLOUDY    34  30  85 CALM      30.28R
$$

ILZ064>066-069>071-074>076-080>082-084>086-088>090-092>094-200500-
SOUTH-CENTRAL ILLINOIS

CITY           SKY/WX    TMP DP  RH WIND       PRES   REMARKS
CARBONDALE     CLOUDY    35  27  72 E7        30.28R WCI  29
CAIRO*         MOCLDY    37  30  75 CALM      30.28R
EFFINGHAM*     CLOUDY    30  24  79 CALM      30.29R
MARION         FLURRIES  34  30  86 CALM      30.29R
MT. VERNON     CLOUDY    34  23  64 E3        30.28R
CENTRALIA*     CLOUDY    33  24  71 CALM      30.27R
SALEM*         CLOUDY    34  26  71 CALM      30.27R
METROPOLIS*    CLOUDY    36  30  78 CALM      30.26S
$$

ILZ067-068-072-073-078-083-087-091-200500-
SOUTHEAST ILLINOIS

CITY           SKY/WX    TMP DP  RH WIND       PRES   REMARKS
LAWRENCEVILLE  CLOUDY    31  26  82 NE3       30.28R
FLORA*         CLOUDY    32  27  80 CALM      30.28S
FAIRFIELD*     CLOUDY    33  27  78 CALM      30.27R
HARRISBURG*    CLOUDY    35  28  76 CALM      30.29R
ROBINSON*      CLOUDY    32  27  81 E3        30.30R
CARMI*         CLOUDY    35  30  83 NE3       30.27R
$$

ABBREVIATIONS USED IN REMARKS
   TC - TEMPERATURE IN CELSIUS
  WCI - WIND CHILL INDEX
   HX - HEAT INDEX
  VSB - VISIBILITY
$$



USA.gov is the U.S. government's official web portal to all federal, state and local government web resources and services.